Regional Weather Roundup
Issued by NWS

Home | Current Version | Previous Version | Graphics & Text | Print | Product List | Glossary On
Versions: 1 2 3 4 5 6 7 8 9 10 11 12 13 14 15 16 17 18 19 20 21 22 23 24 25 26 27 28 29 30 31 32 33 34 35 36 37 38 39 40 41 42 43 44 45 46 47 48 49 50
000
ASUS43 KDTX 280610
RWRMI
MICHIGAN HOURLY REGIONAL WEATHER ROUNDUP
NATIONAL WEATHER SERVICE DETROIT/PONTIAC MI
200 AM EDT THU AUG 28 2014

NOTE: "FAIR" INDICATES FEW OR NO CLOUDS BELOW 12,000 FEET WITH NO
SIGNIFICANT WEATHER AND/OR OBSTRUCTION TO VISIBILITY.

MIZ047>049-052>055-059>063-066>070-074>076-081>083-280700-
SOUTHEAST LOWER MICHIGAN

CITY           SKY/WX    TMP DP  RH WIND       PRES   REMARKS
ADRIAN         FAIR      59  57  93 NE5       30.13R
6HR MIN TEMP:  59; 6HR MAX TEMP:  71;

ALMA           FAIR      56  50  79 N6        30.16S
ANN ARBOR      CLOUDY    62  58  86 SE3       30.13R
BAD AXE        FAIR      52  51  95 CALM      30.15S
6HR MIN TEMP:  52; 6HR MAX TEMP:  64;

CARO           FAIR      56  55  94 CALM      30.15S
DETROIT CITY   CLOUDY    65  56  72 NE5       30.13S
6HR MIN TEMP:  65; 6HR MAX TEMP:  76;

DETROIT        MOCLDY    63  55  75 N5        30.13R
6HR MIN TEMP:  63; 6HR MAX TEMP:  72;

FLINT          FAIR      62  54  74 E8        30.15S
6HR MIN TEMP:  62; 6HR MAX TEMP:  73;

GROSSE ILE     FAIR      63  55  77 E7        30.11S
HILLSDALE      FAIR      57  57 100 CALM      30.12F
HOWELL         CLOUDY    61  57  85 N5        30.14R
6HR MIN TEMP:  61; 6HR MAX TEMP:  69;


CITY           SKY/WX    TMP DP  RH WIND       PRES   REMARKS
JACKSON        FAIR      60  57  89 VRB3      30.13R
6HR MIN TEMP:  60; 6HR MAX TEMP:  68;

LAMBERTVILLE   FAIR      63  59  88 CALM      30.11F
LANSING        FAIR      59  51  75 N5        30.15S
6HR MIN TEMP:  59; 6HR MAX TEMP:  71;

LAPEER         FAIR      57  54  89 CALM      30.15S
MASON          MOCLDY    59  54  83 N3        30.14S
MT. CLEMENS    MOCLDY    59  53  81 N7        30.13R
6HR MIN TEMP:  59; 6HR MAX TEMP:  67;

PONTIAC        CLOUDY    61  55  81 NE8       30.13S
6HR MIN TEMP:  61; 6HR MAX TEMP:  71;

PORT HOPE        N/A     61  51  70 CALM      30.13S
6HR MIN TEMP:  61; 6HR MAX TEMP:  65;

PORT HURON     FAIR      54  54 100 CALM      30.13S
TRI CITIES     MOCLDY    59  50  72 N8        30.17S
6HR MIN TEMP:  59; 6HR MAX TEMP:  70;

TROY           CLOUDY    63  56  79 NE7       30.15S
SAGINAW HB     FAIR      59  59 100 NW3       30.15S
$$
MIZ043>046-050>051-056>058-064>065-071>073-077>080-280700-
SOUTHWEST LOWER MICHIGAN

CITY           SKY/WX    TMP DP  RH WIND       PRES   REMARKS
BATTLE CREEK   FAIR      62  53  72 NE7       30.15R
6HR MIN TEMP:  62; 6HR MAX TEMP:  72;

BENTON HARBOR  FAIR      59  55  87 NE5       30.13S
6HR MIN TEMP:  58; 6HR MAX TEMP:  67;

BIG RAPIDS     FAIR      51  51  99 CALM      30.17S
6HR MIN TEMP:  50; 6HR MAX TEMP:  66;

COLDWATER      FAIR      63  60  90 N7        30.12F
6HR MIN TEMP:  62; 6HR MAX TEMP:  72;

FREMONT        FAIR      56  51  82 E6        30.16S
HOLLAND        FAIR      61  54  77 NE3       30.16R
6HR MIN TEMP:  61; 6HR MAX TEMP:  69;

GRAND RAPIDS   FAIR      58  58 100 NE5       30.16R
6HR MIN TEMP:  58; 6HR MAX TEMP:  72;

IONIA          FAIR      58  52  81 NE7       30.15S
KALAMAZOO      FAIR      62  55  77 NE5       30.14S
6HR MIN TEMP:  62; 6HR MAX TEMP:  71;

LUDINGTON      FAIR      55  52  90 E5        30.16S
6HR MIN TEMP:  51; 6HR MAX TEMP:  64;

MARSHALL       FAIR      60  55  86 NE3       30.13S
MOUNT PLEASANT FAIR      51  49  93 CALM      30.16S
6HR MIN TEMP:  51; 6HR MAX TEMP:  68;

MUSKEGON       FAIR      58  52  80 NE3       30.16S
6HR MIN TEMP:  57; 6HR MAX TEMP:  69;

SOUTH HAVEN    FAIR      59  56  89 NE7       30.14S
$$
MIZ016>042-280700-
NORTHERN LOWER MICHIGAN

CITY           SKY/WX    TMP DP  RH WIND       PRES   REMARKS
ALPENA         FAIR      49  45  86 W5        30.15F
6HR MIN TEMP:  49; 6HR MAX TEMP:  64;

BEAVER ISLAND  FAIR      45  44  97 CALM      30.18S
6HR MIN TEMP:  45; 6HR MAX TEMP:  63;

BELLAIRE         N/A     45  44  95 CALM      30.17F FOG
6HR MIN TEMP:  45; 6HR MAX TEMP:  62;

CADILLAC       FAIR      44  43  99 CALM      30.17S
CHARLEVOIX     FAIR      51  47  86 CALM      30.21S
6HR MIN TEMP:  51; 6HR MAX TEMP:  64;

FRANKFORT      FAIR      49  46  88 CALM      30.18R
GAYLORD        FAIR      47  43  86 CALM      30.18R
6HR MIN TEMP:  47; 6HR MAX TEMP:  60;

GRAYLING       FAIR      42  42 100 CALM      30.18F
6HR MIN TEMP:  42; 6HR MAX TEMP:  59;

HARBOR SPRINGS FAIR      47  44  89 CALM      30.18S
HOUGHTON LAKE  FAIR      46  45  96 CALM      30.18F
6HR MIN TEMP:  44; 6HR MAX TEMP:  62;

MANISTEE       FAIR      48  45  87 SE3       30.17F
OSCODA         FAIR      49  47  92 W3        30.15S
PELLSTON       FAIR      41  39  93 W3        30.18R
6HR MIN TEMP:  40; 6HR MAX TEMP:  63;

ROGERS CITY    FAIR      50  48  93 NW5       30.17S
TRAVERSE CITY  FAIR      51  48  89 CALM      30.17S
6HR MIN TEMP:  50; 6HR MAX TEMP:  65;

$$
MIZ007>008-015-280700-
EASTERN UPPER MICHIGAN

CITY           SKY/WX    TMP DP  RH WIND       PRES   REMARKS
KINROSS        FAIR      46  45  93 W3        30.16S
6HR MIN TEMP:  46; 6HR MAX TEMP:  59;

MACKINAC ISLAN FAIR      48  46  93 N7        30.16S
6HR MIN TEMP:  48; 6HR MAX TEMP:  59;

NEWBERRY       FAIR      42  40  94 SW3       30.18R
6HR MIN TEMP:  39; 6HR MAX TEMP:  56;

S. S. MARIE    FAIR      51  48  89 NW5       30.15S
6HR MIN TEMP:  50; 6HR MAX TEMP:  57;

MUNISING         N/A     48  42  80 S9        30.17R
6HR MIN TEMP:  48; 6HR MAX TEMP:  62;

$$
MIZ004>006-011>014-085-280700-
CENTRAL UPPER MICHIGAN

CITY           SKY/WX    TMP DP  RH WIND       PRES   REMARKS
MANISTIQUE     FAIR      42  40  95 NW3       30.18S
6HR MIN TEMP:  41; 6HR MAX TEMP:  60;

ESCANABA       CLOUDY    54  48  82 CALM      30.18S
6HR MIN TEMP:  50; 6HR MAX TEMP:  64;

MENOMINEE      FAIR      63  54  72 S8        30.17S
6HR MIN TEMP:  55; 6HR MAX TEMP:  66;

SAWYER-GWINN   FAIR      46  42  86 CALM      30.18F
$$
MIZ001>003-009>011-084-280700-
WESTERN UPPER MICHIGAN

CITY           SKY/WX    TMP DP  RH WIND       PRES   REMARKS
IRON MOUNTAIN  FAIR      49  45  86 CALM      30.18S
6HR MIN TEMP:  49; 6HR MAX TEMP:  69;

HOUGHTON       FAIR      46  42  86 W3        30.16R
6HR MIN TEMP:  46; 6HR MAX TEMP:  60;

COPPER HARBOR    N/A     52  44  74 W3        30.15S
6HR MIN TEMP:  52; 6HR MAX TEMP:  62;

$$

ABBREVIATIONS USED IN REMARKS
   TC - TEMPERATURE IN CELSIUS
  WCI - WIND CHILL INDEX
   HX - HEAT INDEX
  VSB - VISIBILITY



USA.gov is the U.S. government's official web portal to all federal, state and local government web resources and services.